QPF
0.00 0.00 0.00 0.00 0.00 0.00 0.00 0.00 0.00 0.00 0.00 0.00 0.00 0.00 0.01 0.02 0.05 0.09 0.03 0.01 0.00 0.00 0.00 0.00 0.00 0.00 0.01 0.01 0.02 0.02 0.01 0.01 0.00 0.00 0.00 0.01 0.01 0.01 0.00 0.00 0.00 0.00 0.00 0.00 0.00 0.00 0.00 0.00 0.00
0.00 0.00 0.00 0.00 0.00 0.00 0.00 0.00 0.00 0.00 0.00 0.00 0.00 0.00 0.00 0.01 0.03 0.03 0.01 0.00 0.00 0.01 0.01 0.00 0.00 0.00 0.01 0.01 0.02 0.02 0.01 0.01 0.01 0.01 0.01 0.01 0.01 0.01 0.00 0.01 0.01 0.00 0.00 0.00 0.00 0.00 0.00 0.00 0.00
0.00 0.00 0.00 0.00 0.00 0.00 0.00 0.00 0.00 0.00 0.00 0.00 0.00 0.00 0.01 0.02 0.03 0.03 0.01 0.00 0.00 0.00 0.01 0.00 0.00 0.00 0.01 0.01 0.01 0.02 0.01 0.01 0.01 0.01 0.01 0.01 0.01 0.01 0.00 0.01 0.01 0.01 0.00 0.00 0.00 0.00 0.00 0.00 0.00
0.00 0.00 0.00 0.00 0.00 0.00 0.00 0.00 0.00 0.00 0.00 0.01 0.00 0.00 0.00 0.01 0.01 0.01 0.00 0.00 0.00 0.01 0.02 0.01 0.00 0.00 0.01 0.01 0.02 0.01 0.01 0.01 0.01 0.01 0.01 0.01 0.01 0.01 0.01 0.01 0.01 0.01 0.00 0.00 0.00 0.00 0.00 0.00 0.00
0.00 0.00 0.00 0.00 0.00 0.00 0.00 0.00 0.00 0.00 0.01 0.01 0.01 0.02 0.01 0.01 0.01 0.00 0.00 0.00 0.00 0.01 0.02 0.01 0.00 0.01 0.01 0.01 0.02 0.02 0.02 0.02 0.02 0.02 0.02 0.01 0.01 0.01 0.01 0.01 0.01 0.01 0.01 0.01 0.01 0.01 0.01 0.01 0.00
0.00 0.00 0.00 0.00 0.00 0.00 0.00 0.00 0.00 0.01 0.01 0.01 0.02 0.02 0.02 0.02 0.01 0.00 0.00 0.00 0.01 0.01 0.02 0.02 0.01 0.02 0.02 0.02 0.02 0.03 0.03 0.03 0.02 0.02 0.02 0.02 0.01 0.01 0.01 0.01 0.01 0.01 0.01 0.01 0.01 0.01 0.01 0.01 0.00
0.00 0.00 0.00 0.00 0.00 0.00 0.00 0.00 0.00 0.01 0.02 0.06 0.06 0.05 0.02 0.03 0.03 0.02 0.01 0.01 0.02 0.02 0.03 0.03 0.03 0.03 0.04 0.04 0.04 0.04 0.04 0.04 0.04 0.04 0.03 0.03 0.03 0.02 0.02 0.02 0.02 0.02 0.02 0.01 0.01 0.01 0.00 0.00 0.00
0.00 0.00 0.00 0.00 0.00 0.00 0.00 0.00 0.00 0.01 0.04 0.08 0.05 0.04 0.02 0.02 0.02 0.02 0.03 0.03 0.03 0.04 0.04 0.05 0.06 0.06 0.06 0.05 0.05 0.05 0.04 0.04 0.04 0.04 0.04 0.03 0.03 0.03 0.03 0.03 0.03 0.03 0.03 0.03 0.02 0.02 0.01 0.01 0.01
0.00 0.00 0.00 0.00 0.00 0.00 0.00 0.00 0.00 0.01 0.01 0.03 0.03 0.02 0.01 0.01 0.01 0.03 0.05 0.04 0.05 0.04 0.06 0.07 0.06 0.09 0.13 0.10 0.06 0.05 0.05 0.05 0.05 0.06 0.04 0.05 0.08 0.10 0.10 0.08 0.06 0.04 0.04 0.03 0.04 0.03 0.02 0.02 0.01
0.00 0.00 0.00 0.00 0.00 0.00 0.00 0.00 0.01 0.01 0.01 0.02 0.02 0.03 0.01 0.01 0.02 0.02 0.03 0.04 0.05 0.05 0.06 0.07 0.08 0.10 0.11 0.14 0.12 0.11 0.09 0.10 0.10 0.13 0.09 0.09 0.15 0.17 0.15 0.12 0.08 0.08 0.06 0.05 0.06 0.05 0.04 0.03 0.04
0.00 0.00 0.00 0.00 0.00 0.00 0.00 0.00 0.00 0.00 0.03 0.04 0.04 0.05 0.02 0.02 0.02 0.02 0.02 0.02 0.03 0.04 0.06 0.06 0.07 0.10 0.10 0.11 0.13 0.16 0.18 0.17 0.17 0.18 0.15 0.16 0.15 0.15 0.14 0.16 0.12 0.10 0.10 0.13 0.15 0.12 0.11 0.12 0.12
0.00 0.00 0.00 0.00 0.01 0.01 0.00 0.00 0.00 0.01 0.05 0.05 0.05 0.05 0.02 0.01 0.02 0.02 0.03 0.03 0.07 0.07 0.12 0.15 0.06 0.08 0.11 0.12 0.12 0.14 0.17 0.21 0.25 0.26 0.20 0.19 0.19 0.18 0.16 0.15 0.16 0.19 0.21 0.20 0.20 0.21 0.19 0.18 0.17
0.00 0.00 0.00 0.00 0.01 0.01 0.00 0.00 0.00 0.01 0.01 0.01 0.02 0.04 0.02 0.02 0.03 0.03 0.04 0.06 0.08 0.09 0.11 0.15 0.16 0.15 0.11 0.14 0.16 0.14 0.17 0.22 0.28 0.28 0.20 0.16 0.18 0.17 0.15 0.14 0.13 0.15 0.19 0.19 0.18 0.16 0.16 0.15 0.10
0.00 0.00 0.00 0.00 0.01 0.00 0.00 0.00 0.00 0.00 0.00 0.01 0.01 0.02 0.01 0.01 0.02 0.03 0.05 0.07 0.07 0.08 0.09 0.13 0.18 0.14 0.11 0.13 0.16 0.15 0.13 0.16 0.18 0.19 0.15 0.12 0.14 0.15 0.13 0.12 0.11 0.11 0.11 0.12 0.12 0.12 0.14 0.14 0.12
0.00 0.00 0.00 0.00 0.00 0.00 0.00 0.01 0.00 0.00 0.00 0.01 0.01 0.02 0.02 0.02 0.03 0.03 0.04 0.06 0.06 0.06 0.07 0.08 0.09 0.11 0.13 0.16 0.19 0.18 0.14 0.13 0.16 0.18 0.18 0.13 0.11 0.11 0.11 0.12 0.10 0.09 0.09 0.09 0.09 0.10 0.13 0.12 0.10
0.00 0.00 0.00 0.00 0.00 0.00 0.00 0.02 0.01 0.00 0.00 0.01 0.02 0.02 0.01 0.02 0.03 0.03 0.03 0.04 0.05 0.05 0.06 0.07 0.10 0.11 0.13 0.13 0.13 0.14 0.14 0.11 0.09 0.11 0.12 0.11 0.10 0.11 0.12 0.11 0.09 0.07 0.07 0.08 0.10 0.12 0.13 0.14 0.13
0.00 0.00 0.00 0.00 0.00 0.00 0.00 0.02 0.01 0.00 0.01 0.02 0.03 0.03 0.01 0.01 0.02 0.02 0.02 0.04 0.05 0.06 0.06 0.06 0.06 0.06 0.07 0.09 0.10 0.10 0.10 0.11 0.10 0.09 0.09 0.09 0.08 0.09 0.11 0.10 0.08 0.07 0.07 0.08 0.08 0.11 0.13 0.14 0.14
0.00 0.00 0.00 0.00 0.00 0.00 0.00 0.02 0.01 0.01 0.02 0.03 0.05 0.04 0.01 0.01 0.01 0.02 0.02 0.03 0.04 0.05 0.05 0.05 0.06 0.06 0.06 0.07 0.10 0.11 0.10 0.09 0.07 0.06 0.06 0.07 0.07 0.08 0.10 0.10 0.08 0.07 0.07 0.09 0.09 0.09 0.10 0.11 0.11
0.00 0.00 0.00 0.00 0.00 0.01 0.01 0.02 0.02 0.01 0.02 0.02 0.03 0.03 0.02 0.02 0.02 0.02 0.02 0.03 0.04 0.04 0.03 0.04 0.05 0.04 0.05 0.06 0.08 0.10 0.09 0.07 0.05 0.04 0.05 0.06 0.06 0.06 0.07 0.09 0.08 0.07 0.08 0.08 0.09 0.09 0.09 0.09 0.10
0.00 0.00 0.00 0.00 0.00 0.01 0.02 0.04 0.03 0.03 0.02 0.03 0.03 0.01 0.04 0.04 0.02 0.02 0.02 0.02 0.02 0.03 0.03 0.04 0.04 0.04 0.06 0.07 0.07 0.08 0.07 0.06 0.04 0.04 0.05 0.05 0.06 0.07 0.06 0.06 0.05 0.05 0.06 0.07 0.07 0.08 0.08 0.09 0.10
0.00 0.00 0.00 0.00 0.00 0.00 0.01 0.05 0.06 0.07 0.05 0.07 0.04 0.02 0.02 0.04 0.03 0.02 0.02 0.02 0.03 0.03 0.03 0.03 0.03 0.04 0.06 0.07 0.08 0.07 0.07 0.06 0.05 0.05 0.06 0.05 0.04 0.06 0.08 0.05 0.04 0.04 0.05 0.06 0.06 0.06 0.06 0.07 0.08
0.00 0.00 0.00 0.00 0.00 0.00 0.01 0.04 0.05 0.06 0.06 0.06 0.05 0.03 0.02 0.03 0.03 0.03 0.04 0.04 0.04 0.03 0.03 0.03 0.03 0.06 0.07 0.06 0.09 0.09 0.08 0.07 0.06 0.06 0.06 0.07 0.07 0.05 0.06 0.05 0.04 0.03 0.04 0.04 0.04 0.04 0.05 0.06 0.06
0.00 0.00 0.00 0.00 0.00 0.00 0.01 0.02 0.04 0.07 0.08 0.05 0.03 0.02 0.02 0.02 0.03 0.03 0.04 0.05 0.05 0.04 0.04 0.04 0.04 0.07 0.12 0.09 0.10 0.09 0.09 0.07 0.06 0.06 0.06 0.06 0.05 0.04 0.03 0.04 0.04 0.03 0.04 0.04 0.04 0.04 0.05 0.06 0.07
0.00 0.00 0.00 0.00 0.00 0.00 0.00 0.01 0.03 0.07 0.09 0.07 0.03 0.02 0.02 0.02 0.03 0.04 0.04 0.04 0.04 0.04 0.03 0.04 0.05 0.05 0.05 0.07 0.08 0.08 0.08 0.07 0.05 0.05 0.05 0.04 0.04 0.03 0.03 0.03 0.03 0.03 0.04 0.05 0.05 0.06 0.07 0.07 0.07
0.00 0.00 0.01 0.02 0.01 0.01 0.01 0.02 0.05 0.06 0.07 0.08 0.07 0.07 0.05 0.03 0.03 0.03 0.04 0.05 0.05 0.04 0.04 0.04 0.05 0.08 0.05 0.04 0.04 0.04 0.04 0.05 0.05 0.05 0.05 0.03 0.02 0.02 0.02 0.02 0.02 0.02 0.03 0.04 0.05 0.05 0.05 0.05 0.04
0.00 0.00 0.02 0.05 0.03 0.03 0.03 0.05 0.07 0.04 0.03 0.05 0.06 0.08 0.09 0.03 0.03 0.04 0.04 0.04 0.04 0.04 0.04 0.04 0.03 0.03 0.03 0.04 0.04 0.03 0.03 0.03 0.03 0.03 0.03 0.02 0.01 0.01 0.01 0.01 0.01 0.01 0.01 0.02 0.02 0.03 0.04 0.04 0.03
0.00 0.00 0.01 0.03 0.02 0.04 0.05 0.09 0.09 0.05 0.02 0.02 0.02 0.04 0.06 0.03 0.02 0.03 0.02 0.03 0.03 0.03 0.03 0.03 0.03 0.03 0.03 0.03 0.03 0.02 0.02 0.03 0.02 0.01 0.02 0.01 0.01 0.01 0.01 0.01 0.01 0.01 0.01 0.02 0.02 0.02 0.02 0.03 0.04
0.00 0.00 0.01 0.01 0.03 0.04 0.06 0.09 0.12 0.07 0.04 0.02 0.03 0.04 0.04 0.02 0.02 0.02 0.01 0.02 0.03 0.03 0.04 0.04 0.04 0.04 0.03 0.03 0.03 0.03 0.03 0.02 0.02 0.02 0.01 0.01 0.01 0.01 0.01 0.01 0.02 0.01 0.02 0.03 0.03 0.03 0.02 0.02 0.02
0.00 0.00 0.00 0.01 0.02 0.04 0.09 0.14 0.13 0.11 0.06 0.03 0.04 0.05 0.03 0.01 0.01 0.01 0.02 0.02 0.03 0.04 0.04 0.05 0.05 0.04 0.03 0.03 0.03 0.03 0.03 0.03 0.03 0.02 0.02 0.02 0.02 0.01 0.01 0.01 0.01 0.01 0.01 0.01 0.02 0.02 0.01 0.02 0.02
0.00 0.00 0.01 0.03 0.03 0.02 0.07 0.12 0.08 0.08 0.04 0.03 0.04 0.04 0.03 0.01 0.01 0.01 0.01 0.02 0.03 0.05 0.07 0.09 0.07 0.04 0.03 0.03 0.03 0.03 0.03 0.03 0.03 0.02 0.02 0.02 0.01 0.01 0.01 0.01 0.01 0.01 0.01 0.01 0.01 0.01 0.02 0.02 0.02
MSLP
1009.37 1009.82 1010.23 1010.45 1010.41 1010.11 1009.61 1009.06 1008.58 1008.33 1008.35 1008.65 1009.15 1009.70 1010.19 1010.50 1010.59 1010.46 1010.23 1010.01 1009.92 1010.06 1010.45 1011.06 1011.81 1012.57 1013.23 1013.73 1014.05 1014.22 1014.32 1014.43 1014.62 1014.93 1015.34 1015.81 1016.26 1016.64 1016.88 1016.99 1016.99 1016.93 1016.88 1016.88 1016.95 1017.11 1017.30 1017.49 1017.64
1009.66 1010.19 1010.58 1010.70 1010.50 1009.99 1009.30 1008.57 1007.98 1007.65 1007.66 1007.97 1008.49 1009.08 1009.59 1009.92 1010.01 1009.91 1009.73 1009.59 1009.60 1009.87 1010.39 1011.13 1011.97 1012.79 1013.49 1014.00 1014.32 1014.49 1014.60 1014.73 1014.96 1015.30 1015.74 1016.21 1016.64 1016.96 1017.15 1017.19 1017.14 1017.05 1016.99 1017.00 1017.11 1017.30 1017.52 1017.72 1017.85
1010.10 1010.66 1010.98 1010.97 1010.58 1009.89 1009.01 1008.15 1007.46 1007.10 1007.11 1007.44 1007.99 1008.59 1009.11 1009.42 1009.51 1009.43 1009.27 1009.19 1009.30 1009.68 1010.32 1011.16 1012.09 1012.98 1013.72 1014.26 1014.59 1014.78 1014.91 1015.07 1015.32 1015.67 1016.10 1016.54 1016.92 1017.18 1017.30 1017.29 1017.19 1017.10 1017.07 1017.13 1017.30 1017.55 1017.80 1018.01 1018.13
1010.60 1011.13 1011.35 1011.18 1010.62 1009.75 1008.75 1007.80 1007.08 1006.74 1006.78 1007.16 1007.73 1008.34 1008.84 1009.13 1009.19 1009.09 1008.95 1008.91 1009.09 1009.54 1010.27 1011.20 1012.20 1013.14 1013.91 1014.48 1014.84 1015.06 1015.21 1015.40 1015.67 1016.02 1016.43 1016.82 1017.14 1017.33 1017.38 1017.32 1017.22 1017.15 1017.16 1017.30 1017.54 1017.85 1018.15 1018.37 1018.47
1011.04 1011.48 1011.57 1011.23 1010.52 1009.53 1008.47 1007.51 1006.84 1006.57 1006.70 1007.14 1007.75 1008.37 1008.85 1009.10 1009.11 1008.98 1008.83 1008.80 1009.01 1009.52 1010.30 1011.27 1012.31 1013.27 1014.07 1014.65 1015.04 1015.28 1015.47 1015.68 1015.97 1016.32 1016.70 1017.05 1017.31 1017.44 1017.44 1017.35 1017.26 1017.22 1017.29 1017.50 1017.81 1018.17 1018.50 1018.73 1018.80
1011.30 1011.60 1011.52 1011.03 1010.20 1009.17 1008.12 1007.25 1006.70 1006.57 1006.83 1007.38 1008.05 1008.68 1009.13 1009.34 1009.30 1009.13 1008.95 1008.92 1009.14 1009.65 1010.44 1011.42 1012.45 1013.40 1014.19 1014.77 1015.17 1015.44 1015.66 1015.90 1016.21 1016.56 1016.93 1017.25 1017.46 1017.54 1017.51 1017.41 1017.32 1017.31 1017.43 1017.69 1018.06 1018.45 1018.80 1019.01 1019.05
1011.26 1011.38 1011.14 1010.53 1009.65 1008.64 1007.70 1006.99 1006.64 1006.71 1007.15 1007.82 1008.57 1009.22 1009.66 1009.82 1009.75 1009.53 1009.32 1009.27 1009.47 1009.97 1010.72 1011.65 1012.63 1013.53 1014.28 1014.83 1015.23 1015.51 1015.76 1016.04 1016.37 1016.74 1017.11 1017.42 1017.61 1017.66 1017.61 1017.50 1017.41 1017.42 1017.56 1017.84 1018.22 1018.61 1018.94 1019.13 1019.14
1010.90 1010.84 1010.45 1009.77 1008.90 1008.00 1007.23 1006.75 1006.65 1006.95 1007.58 1008.39 1009.21 1009.90 1010.33 1010.47 1010.37 1010.13 1009.91 1009.83 1010.00 1010.45 1011.14 1011.99 1012.87 1013.69 1014.35 1014.86 1015.23 1015.51 1015.79 1016.10 1016.47 1016.87 1017.26 1017.56 1017.75 1017.80 1017.73 1017.61 1017.52 1017.51 1017.64 1017.90 1018.25 1018.61 1018.90 1019.05 1019.03
1010.29 1010.07 1009.58 1008.88 1008.08 1007.33 1006.79 1006.57 1006.73 1007.27 1008.08 1009.01 1009.91 1010.62 1011.06 1011.20 1011.10 1010.86 1010.64 1010.56 1010.70 1011.09 1011.69 1012.42 1013.18 1013.87 1014.43 1014.86 1015.19 1015.46 1015.75 1016.10 1016.51 1016.95 1017.37 1017.70 1017.89 1017.94 1017.87 1017.74 1017.61 1017.58 1017.66 1017.86 1018.15 1018.44 1018.68 1018.78 1018.73
1009.56 1009.23 1008.69 1008.02 1007.35 1006.80 1006.50 1006.53 1006.93 1007.66 1008.61 1009.63 1010.58 1011.31 1011.76 1011.93 1011.85 1011.65 1011.46 1011.38 1011.50 1011.83 1012.33 1012.93 1013.54 1014.09 1014.53 1014.87 1015.14 1015.40 1015.70 1016.08 1016.53 1017.01 1017.45 1017.81 1018.02 1018.08 1018.00 1017.85 1017.69 1017.60 1017.61 1017.74 1017.94 1018.16 1018.33 1018.39 1018.32
1008.89 1008.50 1007.97 1007.39 1006.87 1006.52 1006.44 1006.69 1007.27 1008.13 1009.15 1010.21 1011.16 1011.91 1012.38 1012.58 1012.56 1012.43 1012.29 1012.25 1012.36 1012.63 1013.02 1013.49 1013.95 1014.35 1014.66 1014.91 1015.12 1015.35 1015.66 1016.05 1016.53 1017.04 1017.52 1017.90 1018.14 1018.20 1018.13 1017.95 1017.76 1017.61 1017.55 1017.58 1017.69 1017.83 1017.94 1017.97 1017.90
1008.44 1008.05 1007.59 1007.13 1006.77 1006.60 1006.70 1007.09 1007.77 1008.67 1009.69 1010.72 1011.64 1012.37 1012.86 1013.11 1013.18 1013.15 1013.10 1013.11 1013.22 1013.44 1013.74 1014.07 1014.38 1014.64 1014.83 1014.99 1015.15 1015.35 1015.65 1016.06 1016.55 1017.08 1017.58 1017.98 1018.23 1018.31 1018.23 1018.05 1017.83 1017.63 1017.49 1017.45 1017.48 1017.55 1017.61 1017.62 1017.56
1008.29 1007.95 1007.58 1007.26 1007.05 1007.03 1007.25 1007.70 1008.39 1009.25 1010.19 1011.14 1011.99 1012.69 1013.20 1013.53 1013.71 1013.79 1013.85 1013.93 1014.06 1014.23 1014.45 1014.66 1014.83 1014.96 1015.05 1015.13 1015.24 1015.42 1015.71 1016.11 1016.60 1017.13 1017.63 1018.03 1018.29 1018.38 1018.32 1018.14 1017.90 1017.67 1017.50 1017.39 1017.36 1017.38 1017.41 1017.42 1017.38
1008.42 1008.16 1007.91 1007.72 1007.64 1007.72 1007.99 1008.43 1009.05 1009.79 1010.61 1011.43 1012.19 1012.87 1013.41 1013.83 1014.14 1014.36 1014.54 1014.69 1014.84 1014.99 1015.12 1015.23 1015.29 1015.31 1015.32 1015.33 1015.40 1015.57 1015.84 1016.23 1016.70 1017.21 1017.68 1018.07 1018.33 1018.43 1018.39 1018.23 1018.00 1017.77 1017.57 1017.44 1017.37 1017.36 1017.38 1017.39 1017.37
1008.69 1008.53 1008.40 1008.33 1008.35 1008.49 1008.75 1009.14 1009.64 1010.23 1010.89 1011.59 1012.27 1012.93 1013.53 1014.06 1014.51 1014.88 1015.18 1015.41 1015.59 1015.71 1015.77 1015.78 1015.74 1015.68 1015.62 1015.60 1015.65 1015.80 1016.05 1016.41 1016.85 1017.32 1017.76 1018.12 1018.36 1018.47 1018.44 1018.31 1018.12 1017.91 1017.72 1017.58 1017.51 1017.48 1017.50 1017.52 1017.52
1008.92 1008.86 1008.83 1008.87 1008.98 1009.15 1009.39 1009.69 1010.07 1010.51 1011.03 1011.61 1012.25 1012.93 1013.61 1014.27 1014.87 1015.39 1015.81 1016.11 1016.30 1016.39 1016.38 1016.31 1016.20 1016.07 1015.98 1015.94 1015.98 1016.11 1016.35 1016.68 1017.07 1017.47 1017.86 1018.17 1018.39 1018.50 1018.50 1018.40 1018.25 1018.07 1017.91 1017.79 1017.71 1017.69 1017.71 1017.74 1017.76
1008.95 1008.97 1009.05 1009.19 1009.36 1009.56 1009.78 1010.01 1010.27 1010.59 1011.01 1011.53 1012.16 1012.89 1013.69 1014.50 1015.26 1015.92 1016.44 1016.81 1017.00 1017.05 1016.99 1016.84 1016.66 1016.50 1016.38 1016.34 1016.38 1016.52 1016.74 1017.03 1017.35 1017.69 1018.00 1018.26 1018.45 1018.54 1018.56 1018.49 1018.38 1018.24 1018.11 1018.01 1017.95 1017.93 1017.95 1017.98 1018.00
1008.69 1008.79 1008.97 1009.20 1009.45 1009.68 1009.89 1010.07 1010.27 1010.52 1010.88 1011.39 1012.07 1012.89 1013.81 1014.78 1015.69 1016.49 1017.10 1017.51 1017.70 1017.71 1017.58 1017.38 1017.15 1016.96 1016.84 1016.80 1016.86 1017.00 1017.20 1017.45 1017.71 1017.97 1018.21 1018.40 1018.53 1018.61 1018.63 1018.59 1018.51 1018.41 1018.31 1018.22 1018.17 1018.15 1018.16 1018.18 1018.21
1008.19 1008.36 1008.63 1008.96 1009.29 1009.58 1009.81 1009.98 1010.16 1010.39 1010.75 1011.29 1012.03 1012.96 1014.02 1015.13 1016.18 1017.08 1017.77 1018.21 1018.39 1018.36 1018.19 1017.93 1017.68 1017.47 1017.36 1017.34 1017.41 1017.55 1017.74 1017.94 1018.14 1018.32 1018.47 1018.59 1018.67 1018.71 1018.72 1018.69 1018.63 1018.56 1018.47 1018.40 1018.34 1018.31 1018.31 1018.32 1018.34
1007.61 1007.85 1008.22 1008.64 1009.06 1009.42 1009.70 1009.90 1010.09 1010.34 1010.73 1011.32 1012.14 1013.16 1014.34 1015.56 1016.72 1017.70 1018.44 1018.89 1019.06 1019.00 1018.79 1018.51 1018.23 1018.03 1017.93 1017.93 1018.02 1018.16 1018.33 1018.49 1018.62 1018.72 1018.79 1018.83 1018.85 1018.85 1018.84 1018.80 1018.75 1018.69 1018.61 1018.53 1018.46 1018.41 1018.39 1018.39 1018.40
1007.18 1007.49 1007.96 1008.48 1009.00 1009.43 1009.77 1010.02 1010.23 1010.51 1010.93 1011.56 1012.43 1013.52 1014.77 1016.06 1017.28 1018.31 1019.07 1019.52 1019.69 1019.61 1019.38 1019.08 1018.81 1018.62 1018.54 1018.56 1018.66 1018.80 1018.95 1019.06 1019.13 1019.16 1019.14 1019.11 1019.07 1019.02 1018.98 1018.93 1018.87 1018.80 1018.71 1018.62 1018.54 1018.47 1018.43 1018.41 1018.40
1007.12 1007.52 1008.07 1008.70 1009.29 1009.80 1010.19 1010.48 1010.72 1011.01 1011.44 1012.08 1012.96 1014.06 1015.32 1016.62 1017.84 1018.87 1019.63 1020.09 1020.24 1020.17 1019.94 1019.65 1019.40 1019.23 1019.16 1019.20 1019.30 1019.43 1019.55 1019.62 1019.63 1019.58 1019.50 1019.40 1019.30 1019.21 1019.13 1019.06 1018.98 1018.89 1018.80 1018.69 1018.59 1018.50 1018.44 1018.40 1018.38
1007.57 1008.05 1008.68 1009.38 1010.04 1010.61 1011.03 1011.34 1011.59 1011.87 1012.27 1012.87 1013.71 1014.75 1015.95 1017.21 1018.39 1019.38 1020.11 1020.55 1020.71 1020.65 1020.45 1020.19 1019.96 1019.81 1019.76 1019.80 1019.90 1020.01 1020.08 1020.11 1020.06 1019.96 1019.82 1019.66 1019.51 1019.38 1019.27 1019.17 1019.07 1018.97 1018.86 1018.74 1018.63 1018.52 1018.44 1018.39 1018.36
1008.51 1009.05 1009.74 1010.49 1011.20 1011.79 1012.24 1012.55 1012.79 1013.03 1013.38 1013.90 1014.63 1015.57 1016.66 1017.80 1018.89 1019.81 1020.50 1020.93 1021.09 1021.05 1020.88 1020.66 1020.47 1020.34 1020.31 1020.34 1020.41 1020.49 1020.52 1020.50 1020.40 1020.25 1020.06 1019.87 1019.68 1019.52 1019.38 1019.26 1019.15 1019.03 1018.91 1018.78 1018.66 1018.54 1018.45 1018.38 1018.34
1009.77 1010.34 1011.07 1011.84 1012.57 1013.18 1013.64 1013.95 1014.16 1014.36 1014.63 1015.06 1015.67 1016.46 1017.40 1018.39 1019.35 1020.18 1020.81 1021.20 1021.38 1021.37 1021.24 1021.06 1020.90 1020.80 1020.76 1020.77 1020.82 1020.85 1020.84 1020.77 1020.63 1020.44 1020.23 1020.01 1019.80 1019.62 1019.46 1019.32 1019.20 1019.07 1018.94 1018.81 1018.68 1018.56 1018.46 1018.38 1018.31
1011.08 1011.66 1012.39 1013.16 1013.89 1014.51 1014.98 1015.30 1015.51 1015.68 1015.90 1016.22 1016.71 1017.35 1018.12 1018.95 1019.77 1020.48 1021.03 1021.40 1021.57 1021.59 1021.51 1021.37 1021.24 1021.15 1021.10 1021.09 1021.09 1021.08 1021.03 1020.91 1020.75 1020.54 1020.32 1020.09 1019.87 1019.68 1019.52 1019.38 1019.24 1019.11 1018.97 1018.83 1018.69 1018.57 1018.46 1018.36 1018.28
1012.14 1012.71 1013.40 1014.16 1014.89 1015.53 1016.03 1016.38 1016.63 1016.81 1017.01 1017.27 1017.66 1018.17 1018.78 1019.46 1020.12 1020.72 1021.20 1021.52 1021.69 1021.73 1021.68 1021.59 1021.48 1021.39 1021.33 1021.29 1021.25 1021.20 1021.11 1020.97 1020.79 1020.58 1020.36 1020.14 1019.94 1019.76 1019.60 1019.45 1019.31 1019.16 1019.01 1018.86 1018.72 1018.58 1018.46 1018.34 1018.23
1012.73 1013.25 1013.91 1014.63 1015.36 1016.03 1016.59 1017.03 1017.36 1017.61 1017.84 1018.10 1018.43 1018.85 1019.34 1019.88 1020.41 1020.90 1021.29 1021.57 1021.73 1021.79 1021.76 1021.69 1021.61 1021.53 1021.46 1021.39 1021.32 1021.24 1021.12 1020.98 1020.80 1020.61 1020.41 1020.22 1020.04 1019.87 1019.72 1019.57 1019.42 1019.26 1019.10 1018.93 1018.77 1018.61 1018.46 1018.32 1018.17
1012.76 1013.21 1013.81 1014.51 1015.24 1015.96 1016.62 1017.18 1017.63 1018.01 1018.33 1018.64 1018.97 1019.34 1019.75 1020.18 1020.60 1020.99 1021.30 1021.54 1021.68 1021.74 1021.74 1021.70 1021.63 1021.56 1021.49 1021.42 1021.34 1021.24 1021.13 1020.99 1020.84 1020.68 1020.52 1020.36 1020.22 1020.07 1019.93 1019.78 1019.62 1019.44 1019.25 1019.06 1018.87 1018.68 1018.50 1018.32 1018.13
1012.33 1012.70 1013.23 1013.90 1014.65 1015.43 1016.19 1016.89 1017.51 1018.03 1018.49 1018.89 1019.27 1019.63 1019.99 1020.34 1020.67 1020.97 1021.22 1021.41 1021.53 1021.60 1021.62 1021.61 1021.57 1021.53 1021.47 1021.41 1021.34 1021.25 1021.16 1021.05 1020.94 1020.82 1020.71 1020.59 1020.48 1020.36 1020.23 1020.08 1019.90 1019.70 1019.48 1019.26 1019.03 1018.80 1018.57 1018.35 1018.13
Thickness
5813 5818 5823 5819 5805 5799 5805 5829 5843 5838 5838 5845 5844 5834 5817 5804 5794 5780 5810 5822 5817 5808 5799 5794 5790 5787 5785 5782 5779 5776 5774 5771 5769 5767 5765 5763 5762 5761 5759 5758 5757 5756 5755 5754 5752 5751 5750 5749 5749
5813 5820 5817 5809 5794 5787 5809 5837 5836 5834 5841 5847 5843 5833 5817 5805 5809 5806 5812 5816 5813 5804 5797 5792 5787 5784 5781 5777 5774 5772 5770 5767 5765 5763 5762 5760 5758 5757 5756 5755 5754 5753 5752 5751 5750 5749 5748 5747 5746
5809 5817 5805 5800 5792 5795 5815 5838 5836 5839 5845 5840 5831 5826 5811 5801 5806 5806 5811 5814 5808 5801 5794 5787 5783 5780 5776 5773 5770 5768 5766 5764 5762 5759 5758 5756 5755 5754 5753 5751 5750 5750 5749 5748 5747 5746 5746 5745 5744
5808 5806 5803 5797 5796 5819 5830 5835 5838 5833 5834 5835 5826 5809 5803 5807 5809 5809 5812 5810 5804 5797 5790 5782 5779 5775 5772 5769 5766 5764 5762 5759 5758 5756 5754 5752 5751 5750 5749 5748 5747 5746 5746 5745 5744 5744 5743 5742 5742
5803 5797 5786 5790 5805 5830 5841 5840 5838 5827 5824 5827 5821 5796 5788 5803 5812 5811 5808 5805 5800 5794 5786 5778 5774 5771 5768 5765 5762 5760 5757 5755 5753 5751 5749 5748 5747 5746 5745 5745 5744 5743 5743 5742 5741 5741 5740 5740 5740
5792 5794 5779 5784 5808 5828 5837 5840 5835 5825 5822 5822 5812 5794 5782 5799 5803 5803 5804 5801 5798 5791 5782 5774 5769 5766 5763 5760 5757 5755 5752 5750 5748 5746 5745 5744 5743 5743 5742 5741 5741 5740 5740 5739 5739 5738 5738 5737 5737
5785 5785 5783 5798 5811 5818 5829 5837 5829 5822 5815 5815 5810 5788 5779 5791 5798 5801 5800 5797 5793 5787 5778 5771 5766 5761 5758 5755 5752 5749 5747 5745 5743 5742 5741 5740 5739 5739 5738 5738 5737 5737 5737 5736 5736 5736 5735 5735 5735
5795 5786 5785 5801 5810 5814 5828 5831 5829 5821 5811 5820 5811 5787 5775 5786 5796 5797 5794 5791 5786 5781 5775 5769 5763 5759 5754 5750 5747 5745 5743 5741 5739 5737 5736 5736 5735 5735 5735 5735 5734 5733 5733 5733 5733 5733 5733 5733 5733
5796 5775 5777 5802 5812 5816 5825 5818 5821 5826 5813 5807 5803 5798 5792 5792 5793 5788 5784 5780 5776 5773 5769 5766 5761 5756 5752 5748 5743 5740 5738 5736 5734 5732 5732 5731 5731 5732 5731 5731 5731 5730 5730 5730 5730 5730 5730 5730 5731
5787 5772 5790 5819 5828 5821 5820 5815 5815 5809 5798 5789 5786 5786 5787 5787 5783 5778 5773 5768 5765 5763 5762 5761 5757 5752 5749 5746 5740 5737 5735 5733 5731 5729 5728 5728 5728 5728 5729 5728 5727 5727 5727 5727 5727 5727 5727 5727 5729
5787 5783 5803 5817 5823 5821 5813 5809 5813 5801 5786 5783 5774 5771 5775 5776 5774 5771 5767 5764 5760 5758 5756 5754 5753 5748 5746 5742 5737 5734 5732 5730 5728 5726 5726 5725 5724 5724 5725 5724 5724 5723 5723 5724 5724 5724 5724 5726 5727
5788 5796 5804 5809 5814 5810 5805 5805 5797 5790 5781 5785 5779 5774 5769 5767 5766 5764 5760 5757 5755 5752 5749 5749 5747 5743 5740 5737 5735 5732 5729 5727 5724 5721 5720 5720 5719 5719 5721 5721 5721 5721 5720 5721 5721 5722 5723 5723 5724
5785 5792 5800 5805 5804 5803 5802 5794 5786 5777 5781 5782 5776 5768 5762 5762 5760 5758 5756 5752 5748 5744 5741 5739 5738 5735 5733 5730 5727 5726 5724 5722 5721 5718 5716 5716 5715 5715 5717 5717 5717 5717 5717 5718 5718 5719 5719 5720 5721
5787 5792 5794 5796 5794 5795 5788 5785 5779 5770 5776 5773 5767 5761 5759 5756 5754 5750 5747 5743 5740 5737 5734 5732 5730 5728 5726 5724 5721 5720 5718 5716 5715 5713 5713 5712 5711 5710 5712 5713 5713 5713 5714 5715 5714 5714 5714 5715 5716
5790 5781 5780 5787 5790 5790 5785 5768 5768 5771 5771 5763 5759 5754 5751 5749 5747 5742 5739 5736 5734 5730 5728 5725 5724 5722 5720 5718 5717 5715 5712 5710 5708 5707 5706 5705 5706 5705 5706 5708 5709 5708 5709 5709 5709 5709 5710 5710 5711
5776 5767 5759 5776 5785 5787 5774 5749 5761 5769 5764 5755 5751 5747 5744 5741 5739 5736 5733 5730 5727 5724 5721 5719 5719 5715 5713 5711 5710 5708 5706 5703 5702 5700 5699 5698 5699 5700 5700 5702 5702 5703 5704 5704 5704 5705 5704 5704 5704
5759 5752 5756 5769 5784 5784 5771 5753 5758 5765 5760 5750 5744 5740 5738 5733 5731 5729 5727 5724 5720 5717 5714 5712 5710 5708 5707 5705 5703 5701 5699 5696 5696 5694 5692 5691 5692 5693 5693 5694 5695 5696 5698 5698 5699 5699 5698 5697 5697
5751 5758 5763 5766 5778 5778 5765 5753 5756 5760 5756 5748 5741 5735 5731 5726 5723 5723 5720 5718 5714 5710 5707 5705 5703 5700 5699 5698 5696 5693 5692 5690 5688 5687 5685 5685 5685 5686 5686 5688 5689 5690 5691 5692 5692 5691 5692 5691 5691
5772 5767 5765 5773 5784 5773 5761 5750 5750 5755 5751 5745 5738 5732 5726 5721 5720 5718 5714 5712 5707 5703 5700 5697 5694 5693 5691 5689 5687 5685 5683 5682 5681 5679 5677 5678 5678 5678 5679 5680 5681 5683 5684 5684 5684 5684 5684 5684 5685
5769 5765 5767 5775 5782 5772 5758 5749 5756 5755 5750 5744 5737 5730 5724 5716 5713 5710 5707 5703 5699 5695 5693 5690 5687 5685 5683 5681 5680 5679 5676 5675 5673 5671 5671 5670 5670 5670 5672 5671 5673 5675 5676 5677 5677 5677 5677 5678 5679
5761 5764 5766 5766 5770 5770 5755 5741 5745 5749 5749 5743 5738 5732 5724 5715 5708 5703 5699 5696 5693 5688 5686 5683 5680 5678 5676 5675 5674 5672 5670 5667 5665 5664 5662 5662 5662 5662 5663 5664 5665 5667 5668 5669 5669 5669 5670 5669 5671
5752 5774 5774 5768 5754 5745 5746 5722 5734 5740 5736 5733 5731 5728 5720 5714 5706 5700 5695 5690 5686 5682 5679 5675 5672 5670 5669 5668 5666 5663 5659 5657 5656 5655 5654 5653 5653 5653 5655 5656 5657 5659 5660 5661 5661 5662 5662 5662 5662
5762 5777 5773 5766 5754 5744 5744 5728 5734 5739 5727 5726 5726 5722 5716 5712 5704 5697 5691 5686 5681 5677 5673 5668 5665 5663 5661 5659 5657 5655 5652 5650 5648 5647 5646 5645 5644 5645 5646 5647 5648 5650 5651 5652 5652 5653 5653 5654 5654
5769 5766 5763 5759 5749 5725 5736 5727 5724 5730 5725 5725 5723 5718 5711 5707 5699 5691 5685 5680 5675 5671 5666 5662 5658 5655 5653 5650 5648 5645 5643 5641 5639 5638 5637 5637 5636 5636 5637 5639 5639 5640 5642 5642 5643 5644 5645 5646 5646
5758 5741 5722 5715 5716 5720 5739 5729 5720 5732 5736 5729 5719 5709 5705 5700 5692 5684 5678 5672 5667 5663 5658 5654 5650 5646 5644 5642 5639 5637 5635 5633 5631 5630 5629 5628 5628 5628 5628 5629 5630 5631 5633 5634 5635 5636 5637 5638 5638
5747 5741 5715 5696 5699 5713 5724 5715 5716 5731 5734 5728 5715 5705 5699 5692 5686 5679 5672 5666 5661 5655 5650 5646 5642 5638 5635 5632 5629 5627 5627 5625 5622 5621 5620 5619 5619 5619 5619 5620 5621 5623 5624 5625 5626 5627 5628 5630 5631
5742 5741 5745 5721 5710 5702 5708 5710 5710 5720 5717 5713 5706 5698 5690 5684 5678 5672 5665 5660 5654 5648 5642 5638 5634 5629 5626 5623 5620 5618 5616 5615 5613 5612 5611 5610 5609 5610 5610 5611 5612 5613 5614 5616 5617 5618 5619 5621 5622
5755 5748 5735 5718 5699 5690 5697 5699 5692 5699 5701 5702 5696 5689 5683 5676 5670 5664 5658 5652 5646 5640 5634 5630 5626 5622 5618 5615 5613 5610 5607 5606 5604 5603 5601 5600 5600 5600 5601 5602 5603 5604 5605 5607 5609 5610 5611 5612 5614
5742 5740 5734 5726 5718 5699 5685 5685 5703 5701 5701 5696 5690 5684 5676 5668 5662 5656 5650 5644 5638 5633 5627 5622 5618 5614 5610 5606 5604 5601 5599 5597 5595 5594 5593 5592 5592 5592 5593 5593 5594 5595 5597 5598 5600 5601 5602 5604 5605
5746 5740 5733 5713 5709 5714 5700 5685 5705 5700 5698 5693 5685 5677 5670 5663 5656 5649 5642 5636 5630 5625 5619 5615 5610 5606 5602 5599 5596 5593 5590 5589 5587 5585 5585 5585 5585 5585 5585 5585 5586 5587 5589 5590 5592 5593 5595 5596 5596